sat.trackr.live / text

‹ back to catalog

STARLINK-31479

NORAD 59316 · 2024-056W

PAYLOAD ACTIVE UNKNOWN

§ Identity

Operator
Country
US
Launch date
2024-03-24
Launch site
AFETR
Launch vehicle
Mass (kg)
RCS (m²)

Purposes: comms

External: N2YO · Heavens-Above · Gunter

§ Orbital elements

Epoch: 2026-05-25T02:28:27.950592Z

Period
94.27 min
Inclination
43.0032°
Eccentricity
0.0001379
Mean motion
15.27572294 rev/d
Perigee alt
482.1 km
Apogee alt
484.0 km
Semi-major
6,861.2 km
B*
6.1989e-6
RAAN
163.2394°
Arg perigee
279.9833°
Mean anomaly
80.0863°
Rev number
12,279

§ Raw data

STARLINK-314791 59316U 24056W   26145.10310128 -.00000092  00000+0  61989-5 0  99942 59316  43.0032 163.2394 0001379 279.9833  80.0863 15.27572294122797

JSON: /api/v1/satellites/59316 · /tle

For live sub-satellite position, see the globe view (requires WebGL).

§ Visibility from observer

Set your observer location to see the next 7 days of passes ≥ 10°. The values pass through the URL so the page stays shareable.

No JS? Fill the form by hand. The geolocation button needs JavaScript.